Location: Kernascl�den
(48.0062°N, 3.3198°W)
Time: 12:41:41
(UTC+00:00)

Landsat 5 - Pass Details

Date: 21 January 2021
Orbit: 528 x 654 km, 98.2° (Epoch: 06 March)

Event Time Altitude Azimuth Distance (km) Brightness Sun altitude
Rises 17:37:18 0° 12° (NNE) 2,760 6.6 -7.0°
Reaches altitude 10° 17:39:28 10° 11° (NNE) 1,842 5.7 -7.3°
Maximum altitude 17:43:26 78° 286° (WNW) 559 3.5 -7.9°
Drops below altitude 10° 17:47:16 10° 200° (SSW) 1,781 6.5 -8.5°
Sets 17:49:20 0° 199° (SSW) 2,660 7.4 -8.9°
